Location: Arbon
(43.0005°N, 0.7472°E)
Time: 22:47:48
(UTC+00:00)

Explorer 7 - Pass Details

Date: 29 November 2020
Orbit: 484 x 678 km, 50.3° (Epoch: 25 January)

Event Time Altitude Azimuth Distance (km) Brightness Sun altitude
Rises 06:15:40 0° 299° (WNW) 2,772 - -9.3°
Reaches altitude 10° 06:18:04 10° 306° (NW) 1,838 - -8.9°
Exits shadow 06:18:12 11° 306° (NW) 1,786 8.8 -8.8°
Maximum altitude 06:22:05 46° 20° (NNE) 719 7.4 -8.2°
Drops below altitude 10° 06:25:53 10° 95° (E) 1,731 10.8 -7.5°
Sets 06:28:05 0° 102° (ESE) 2,591 12.3 -7.2°
